Tracking 19794 objects as of 21-Jul-2019
HD Live streaming from Space Station
objects crossing your sky now

FENGYUN 1C DEB

Track FENGYUN 1C DEB now!
10-day predictions


NORAD ID: 33728
Int'l Code: 1999-025DHR
Perigee: 520.6 km
Apogee: 810.6 km
Inclination: 99.0 °
Period: 97.9 minutes
Semi major axis: 7036 km
RCS: 0.0056 m2 (small)
Launch date: May 10, 1999
Source: People's Republic of China (PRC)
Launch site: Taiyaun Space Center, China (TSC)

Note: This is SATELLITE DEBRIS
aabbcc
Your satellite tracking list
Your tracking list is empty




NASA's NSSDC Master Catalog

Two Line Element Set (TLE):
1 33728U 99025DHR 19201.81531653  .00000086  00000-0  19641-4 0  9992
2 33728  98.9683 319.5369 0206054 335.6679 177.9526 14.70820030639066
Source of the keplerian elements: AFSPC